Track COSMOS 407 now! 10-day predictions COSMOS 407 is classified as:
1 05174U 71035A 22145.85210458 .00000178 00000-0 73888-4 0 9994 2 05174 74.0437 302.4595 0017750 129.0901 231.1833 14.33372041667990